Weather History for LKCV - September, 2013

Change the Weather History Date:

Wednesday, September 4, 2013

  Actual Average Record
Temperature  
Mean Temperature 66 °F -  
Max Temperature 73 °F - - ()
Min Temperature 59 °F - - ()
Cooling Degree Days 1    
Growing Degree Days 16 (Base 50)    
Moisture  
Dew Point 60 °F    
Average Humidity 86    
Maximum Humidity 100    
Minimum Humidity 53    
Precipitation  
Precipitation 0.00 in - - ()
Sea Level Pressure  
Sea Level Pressure 30.27 in    
Wind  
Wind Speed 3 mph ()    
Max Wind Speed 8 mph    
Max Gust Speed -    
Visibility 6.1 miles    
Events Rain    
T = Trace of Precipitation, MM = Missing Value Source: Averaged Metar Reports

Daily Weather History Graph

Daily Weather History Graph

Search for Another Location

Airport or City:

Trip Planner

Search our weather history database for the weather conditions in past years. The results will help you decide how hot, cold, wet, or windy it might be!

Date:

Astronomy

Sep. 04, 2013 Rise Set
Actual Time 6:18 AM CEST 7:35 PM CEST
Civil Twilight 5:44 AM CEST 8:09 PM CEST
Nautical Twilight 5:04 AM CEST 8:49 PM CEST
Astronomical Twilight 4:20 AM CEST 9:32 PM CEST
Moon 5:11 AM CEST (9/4) 6:44 PM CEST (9/4)
Length of Visible Light 14h 24m
Length of Day
13h 17m
Waning Crescent, 1% of the Moon is Illuminated
Sep 4
Waning Crescent
Sep 5
New
Sep 12
First Quarter
Sep 19
Full
Sep 27
Last Quarter

Hourly Weather History & Observations

Time (CEST) Temp. Dew Point Humidity Pressure Visibility Wind Dir Wind Speed Gust Speed Precip Events Conditions
12:00 AM 60.8 °F 60.8 °F 100% 30.30 in 6.2 mi West 8.1 mph - N/A   Overcast
1:00 AM 62.6 °F 60.8 °F 94% 30.30 in 6.2 mi NW 5.8 mph - N/A   Overcast
2:00 AM 60.8 °F 60.8 °F 100% 30.30 in 6.2 mi NW 3.5 mph - N/A   Overcast
3:00 AM 60.8 °F 60.8 °F 100% 30.30 in - NNW 2.3 mph - N/A   Clear
4:00 AM 60.8 °F 59.0 °F 94% 30.30 in 6.2 mi Calm Calm - N/A   Overcast
5:00 AM 60.8 °F 59.0 °F 94% 30.30 in 6.2 mi SSW 2.3 mph - N/A   Overcast
6:00 AM 60.8 °F 59.0 °F 94% 30.30 in 5.0 mi SW 2.3 mph - N/A Rain Light Rain
7:00 AM 60.8 °F 59.0 °F 94% 30.30 in 5.0 mi WSW 2.3 mph - N/A Rain Light Rain
8:00 AM 60.8 °F 60.8 °F 100% 30.30 in 6.2 mi Calm Calm - N/A   Mostly Cloudy
9:00 AM 62.6 °F 60.8 °F 94% 30.30 in 6.2 mi Calm Calm - N/A   Mostly Cloudy
10:00 AM 64.4 °F 62.6 °F 94% 30.30 in 6.2 mi Variable 1.2 mph - N/A   Mostly Cloudy
11:00 AM 66.2 °F 62.6 °F 88% 30.30 in 6.2 mi Variable 2.3 mph - N/A   Mostly Cloudy
12:00 PM 69.8 °F 64.4 °F 83% 30.30 in 6.2 mi NW 3.5 mph - N/A   Mostly Cloudy
1:00 PM 68.0 °F 62.6 °F 83% 30.30 in 6.2 mi NNW 4.6 mph - N/A   Mostly Cloudy
2:00 PM 68.0 °F 60.8 °F 78% 30.27 in 6.2 mi NW 3.5 mph - N/A   Mostly Cloudy
3:00 PM 69.8 °F 59.0 °F 68% 30.27 in 6.2 mi West 3.5 mph - N/A   Mostly Cloudy
4:00 PM 71.6 °F 57.2 °F 60% 30.24 in 6.2 mi Variable 2.3 mph - N/A   Partly Cloudy
5:00 PM 73.4 °F 55.4 °F 53% 30.24 in 6.2 mi Variable 1.2 mph - N/A   Partly Cloudy
6:00 PM 71.6 °F 57.2 °F 60% 30.21 in 6.2 mi NNW 3.5 mph - N/A   Scattered Clouds
7:00 PM 71.6 °F 57.2 °F 60% 30.21 in 6.2 mi NW 2.3 mph - N/A   Scattered Clouds
8:00 PM 66.2 °F 60.8 °F 83% 30.21 in 6.2 mi Variable 2.3 mph - N/A   Scattered Clouds
9:00 PM 64.4 °F 60.8 °F 88% 30.21 in - SW 1.2 mph - N/A   Clear
10:00 PM 59.0 °F 59.0 °F 100% 30.21 in - SSW 2.3 mph - N/A   Clear
11:00 PM 60.8 °F 59.0 °F 94% 30.21 in - Calm Calm - N/A   Clear